Regional Weather Roundup
Issued by NWS Little Rock, AR

Home | Current Version | Previous Version | Text Only | Print | Product List | Glossary Off
Versions: 1 2 3 4 5 6 7 8 9 10 11 12 13 14 15 16 17 18 19 20 21 22 23 24 25 26 27 28 29 30 31 32 33 34 35 36 37 38 39 40 41 42 43 44 45 46 47 48 49 50

000
ASUS44 KLZK 122105
RWRLZK

WEATHER ROUNDUP FOR ARKANSAS
NATIONAL WEATHER SERVICE LITTLE ROCK AR
300 PM CST FRI FEB 12 2016

NOTE: "FAIR" INDICATES FEW OR NO CLOUDS BELOW 12,000 FEET WITH NO
SIGNIFICANT WEATHER AND/OR OBSTRUCTIONS TO VISIBILITY.

ARZ001-003-010-029-122200-
NORTHWEST ARKANSAS

CITY           SKY/WX    TMP DP  RH WIND       PRES   REMARKS
FAYETTEVILLE   SUNNY     51  27  39 N9        30.32S
FORT SMITH     SUNNY     62  27  26 N10       30.29S
HARRISON       SUNNY     50  24  36 NW14G21   30.30S
BENTONVILLE    SUNNY     48  23  37 NE15      30.34S
ROGERS         SUNNY     47  25  42 N12G17    30.33S
SILOAM SPGS    SUNNY     50  25  37 N15       30.34R
HIGHFILL       SUNNY     50  26  39 N15       30.32
SPRINGDALE     SUNNY     50  25  37 N13G18    30.34S
$$

ARZ004-005-016-122200-
NORTH CENTRAL ARKANSAS

CITY           SKY/WX    TMP DP  RH WIND       PRES   REMARKS
BATESVILLE     SUNNY     55  27  33 NW10G16   30.28S
FLIPPIN        SUNNY    N/A N/A N/A N14G20    30.27S
MTN HOME       SUNNY     51  24  34 NW8       30.27S
$$

ARZ040-041-122200-
WEST CENTRAL ARKANSAS

CITY           SKY/WX    TMP DP  RH WIND       PRES   REMARKS
MENA           SUNNY     64  32  29 N10       30.27S
MOUNT IDA      MOSUNNY   65  32  29 N10       30.23S
$$

ARZ009-017-025-026-028-122200-
NORTHEAST ARKANSAS

CITY           SKY/WX    TMP DP  RH WIND       PRES   REMARKS
JONESBORO      SUNNY     50  27  40 N8        30.26S
NEWPORT        SUNNY     55  27  34 NW14      30.28S
WALNUT RIDGE   SUNNY     54  25  32 N16       30.26F
BLYTHEVILLE    SUNNY     54  28  36 N12       30.28R
NW BLYTHEVILLE SUNNY     46  27  46 MISG      30.27S
$$

ARZ022-023-033-042-044-122200-
CENTRAL ARKANSAS

CITY           SKY/WX    TMP DP  RH WIND       PRES   REMARKS
LITTLE ROCK    MOSUNNY   62  30  29 W9        30.26S
N LITTLE ROCK  MOSUNNY   60  33  36 N7        30.26S
JACKSONVILLE   SUNNY     62  31  30 W7        30.24S
SEARCY         SUNNY     61  30  31 N9        30.28R
HOT SPRINGS    MOSUNNY   66  32  28 NW7       30.24S
RUSSELLVILLE   SUNNY     63  32  31 W12       30.25S
CLINTON        FAIR      57  27  30 NW9       30.28F
$$

ARZ036-122200-
EAST ARKANSAS

CITY           SKY/WX    TMP DP  RH WIND       PRES   REMARKS
WEST MEMPHIS   SUNNY     52  32  46 NW10      30.25S
$$

ARZ050-053-066-070-073-122200-
SOUTHWEST ARKANSAS

CITY           SKY/WX    TMP DP  RH WIND       PRES   REMARKS
ARKADELPHIA    FAIR      70  36  28 NW12      30.23F
CAMDEN         SUNNY     70  30  23 NW5       30.23F
TEXARKANA      SUNNY     68  35  29 CALM      30.25S
EL DORADO      SUNNY     68  33  27 MISG      30.23F
DE QUEEN       SUNNY     70  34  26 N13G22    30.23S
$$

ARZ056-057-069-122200-
SOUTHEAST ARKANSAS

CITY           SKY/WX    TMP DP  RH WIND       PRES   REMARKS
PINE BLUFF     SUNNY     59  31  34 CALM      30.26F
STUTTGART      SUNNY     55  34  44 NE3       30.27S
MONTICELLO     SUNNY     64  32  30 NE10      30.24S

$$





USA.gov is the U.S. government's official web portal to all federal, state and local government web resources and services.